Lid_Strength_Index
-0 0 0 3 11 11 14 13 9 10 10 7 6 7 9 7 9 13 1 0 -0 0 0 -1 -1 -1 -1 -1 -1 -1 -1 -2 -1 -1 -1 -2 -2 -1 -1 -1 -1 -1 -1 -1 -1 -1 -1 -1 -1
1 1 2 6 13 16 15 10 11 9 7 6 6 6 8 9 5 4 3 0 -0 0 0 -0 -1 -1 -1 -2 -1 -2 -1 -1 -2 -2 -2 -2 -2 -2 -1 -1 -1 -1 -1 -1 -1 -1 -1 -1 -1
1 1 6 10 13 15 15 10 10 8 6 6 7 5 7 8 4 3 1 -0 -0 -0 -0 -0 -1 -2 -2 -1 -2 -2 -2 -2 -2 -2 -1 -1 -1 -1 -1 -1 -2 -2 -2 -2 -2 -2 -1 -1 -1
3 4 6 12 14 11 11 9 8 8 6 6 6 9 5 3 3 2 0 -0 -0 -0 0 -1 -2 -2 -2 -2 -2 -1 -2 -1 -2 -2 -1 -1 -1 -1 -1 -1 -1 -0 -0 -0 -0 -1 -1 -2 -2
2 6 12 13 13 10 8 7 7 8 8 7 6 9 7 3 1 1 0 0 1 1 0 0 -2 -2 -2 -1 -1 -1 -1 -1 -1 -1 -1 -1 -1 -1 -1 -1 -1 -1 -0 -0 0 -0 -0 -1 -1
7 7 13 15 13 9 8 7 7 8 7 7 7 8 8 2 2 1 0 1 1 1 0 0 -1 -2 -1 -1 -1 -1 -1 -1 -1 -0 -0 0 0 -0 0 -0 -1 -1 -1 -1 -1 0 0 -0 -0
8 10 13 12 12 10 8 6 8 8 8 8 5 9 7 4 2 1 1 1 1 0 0 1 0 -0 -1 -0 -0 -0 -0 -0 0 0 1 0 0 0 -0 -0 -1 -1 -1 -1 -1 -1 -1 -1 -1
6 9 12 12 12 12 7 7 6 7 8 4 4 9 8 4 1 1 2 2 2 2 1 2 1 1 1 1 -1 -0 -0 -0 -0 -0 -1 -1 0 -1 0 -1 -1 -1 -1 -1 -1 -2 -2 -2 -2
5 11 14 13 11 10 7 8 6 4 6 6 5 5 4 2 1 4 5 4 5 3 3 3 3 3 1 2 1 -1 -1 -1 -1 -1 -1 2 4 4 3 -0 -1 -1 -1 -1 -1 -1 -1 -1 -2
8 12 11 8 8 9 7 7 7 7 7 7 6 4 3 2 3 5 6 6 6 5 6 5 5 5 2 1 5 4 1 1 1 2 3 4 4 2 1 -0 -1 -1 -1 -1 -1 -1 -1 0 3
8 11 8 7 6 6 7 7 6 8 10 7 7 6 4 6 6 7 7 6 6 5 4 4 4 3 4 4 5 3 2 2 2 2 3 4 3 3 3 3 3 3 1 3 3 3 3 3 3
9 7 7 6 6 6 8 7 8 7 7 5 6 5 5 7 7 7 6 5 4 5 4 3 3 3 4 5 4 4 4 3 2 2 3 4 4 4 5 5 4 4 4 4 5 4 4 4 3
9 8 7 6 6 6 6 8 8 8 5 6 6 6 7 7 6 5 4 4 4 4 3 3 3 4 4 4 4 3 3 4 4 3 3 4 4 4 4 4 5 4 4 5 5 5 4 4 4
7 7 7 6 7 7 8 8 7 7 6 6 6 7 6 7 5 4 3 4 4 4 4 3 3 3 3 3 4 3 3 3 4 3 3 4 5 4 4 4 4 4 4 5 6 5 4 4 4
7 9 8 7 7 8 7 10 10 6 6 6 6 6 6 6 5 5 5 5 4 4 4 3 2 3 3 3 3 3 3 2 4 4 3 3 4 4 4 4 4 4 3 4 4 3 3 3 3
9 9 12 8 7 7 8 14 9 6 6 7 6 6 6 6 5 5 5 4 5 5 5 4 1 1 2 3 3 3 3 3 2 3 3 2 3 3 4 4 4 4 3 4 4 4 4 4 4
11 13 13 11 7 8 9 13 8 6 7 7 6 6 5 6 5 5 4 4 4 4 5 4 4 1 2 3 3 3 2 2 1 3 3 3 2 2 3 3 3 4 4 3 4 3 4 4 3
13 14 12 13 9 9 11 12 9 7 7 7 7 6 6 5 5 4 4 4 3 4 4 3 3 2 2 2 2 2 2 3 4 4 2 1 2 1 2 3 3 3 3 3 4 4 3 3 3
9 11 12 11 8 10 11 12 10 8 8 8 7 7 6 6 4 3 3 3 3 3 3 4 3 2 2 1 4 4 4 4 4 3 2 2 2 2 3 3 2 3 3 3 3 3 3 4 4
10 11 12 10 9 10 11 12 10 9 8 8 7 7 6 6 5 4 4 3 4 4 4 4 4 3 2 3 3 4 4 3 3 3 3 3 3 2 2 2 3 3 3 3 4 3 4 4 4
10 12 11 11 11 10 12 13 11 9 8 7 6 6 6 6 5 5 4 4 4 4 4 3 3 3 3 3 4 3 4 4 4 3 3 3 2 2 2 2 3 3 4 4 4 3 4 4 3
12 8 9 10 13 16 12 19 13 11 10 9 7 7 6 5 5 4 5 4 4 3 3 3 3 3 3 3 4 4 5 5 4 4 4 3 2 2 1 2 2 3 3 4 3 2 3 4 4
10 8 9 9 12 13 15 17 15 11 12 10 8 7 7 6 6 5 4 4 3 3 3 3 3 3 3 3 3 4 4 4 4 3 3 3 3 2 1 1 2 2 3 3 3 3 3 4 4
7 9 10 13 14 16 15 16 16 14 12 10 9 7 7 6 5 5 4 3 3 3 2 2 3 3 3 3 3 3 4 4 4 3 3 2 2 3 2 1 2 2 3 3 3 3 3 3 4
9 13 16 16 16 17 14 16 15 11 9 9 9 8 7 5 5 5 4 4 3 3 3 3 3 3 3 3 3 4 4 4 4 3 3 2 2 2 2 1 2 2 2 2 2 3 3 3 4
11 12 16 19 18 16 14 18 15 9 8 8 8 8 7 6 6 6 5 5 4 3 3 3 3 3 3 3 3 3 3 3 3 3 3 2 2 2 1 1 2 2 2 2 2 2 3 2 3
10 13 12 16 16 17 16 14 11 9 9 8 8 8 7 7 7 6 6 6 6 5 4 3 3 3 4 3 3 3 3 3 3 3 3 2 1 1 1 1 2 1 1 1 1 2 3 3 3
10 9 14 15 18 20 18 17 16 12 11 9 9 9 8 8 7 8 8 7 7 6 5 5 5 5 3 2 2 3 2 3 3 3 3 3 3 2 1 1 2 1 1 1 2 2 3 3 3
11 12 13 14 14 18 20 18 11 11 10 10 9 9 8 10 9 9 9 7 6 6 6 5 5 3 3 3 4 4 4 3 4 3 2 3 3 2 2 1 1 1 2 1 2 2 1 3 2
10 12 12 15 16 15 16 16 9 9 9 9 9 8 8 10 10 9 9 7 6 6 6 5 5 5 5 5 5 5 5 4 5 3 2 2 2 1 2 2 2 2 1 1 2 1 1 2 2